Simultaneous Nadir Overpasses (SNOs) Predictions

Prediction of SNOs between NOAA-20 and METOP-C Satellite Orbit:

Table of predicted SNOs for the next 14.0 days since TLE Epoch: 1/25/2020
Index Date (NOAA-20) Time (NOAA-20) Lat,Lon (NOAA-20) SZA (NOAA-20 ) Date (METOP-C) Time (METOP-C) Lat,Lon (METOP-C) SZA (METOP-C ) Distance(km) Time Diff (sec)
1 01/31/2020 16:17:12 -73.46, 105.96 88.83 01/31/2020 16:18:18 -73.42, 109.02 89.06 97.31 66
2 01/31/2020 17:07:53 73.22, -86.20 90.90 01/31/2020 17:09:01 73.17, -84.19 90.72 64.96 68
3 01/31/2020 17:58:36 -73.16, 81.25 89.18 01/31/2020 17:59:45 -73.10, 82.99 89.35 56.68 69
4 01/31/2020 18:49:16 72.87,-110.82 90.49 01/31/2020 18:50:29 72.80,-110.31 90.38 18.40 73
5 01/31/2020 19:39:59 -72.81, 56.62 89.59 01/31/2020 19:41:13 -72.74, 56.88 89.70 11.86 74
6 01/31/2020 20:30:43 72.72,-135.88 90.31 01/31/2020 20:31:51 72.74,-135.78 90.30 3.71 68
7 01/31/2020 21:21:27 -72.71, 31.45 89.72 01/31/2020 21:22:34 -72.72, 31.51 89.73 2.44 67
8 01/31/2020 22:12:12 72.67,-161.16 90.23 01/31/2020 22:13:13 72.67,-161.25 90.22 3.07 61
9 01/31/2020 23:02:57 -72.71, 6.07 89.73 01/31/2020 23:03:55 -72.71, 6.15 89.76 2.76 58
10 01/31/2020 23:53:42 72.68, 173.46 90.22 01/31/2020 23:54:34 72.66, 173.39 90.19 3.20 52
11 02/01/2020 00:44:26 -72.67, -19.21 89.81 02/01/2020 00:45:16 -72.70, -19.21 89.79 3.25 50
12 02/01/2020 01:35:12 72.68, 148.08 90.20 02/01/2020 01:35:54 72.69, 148.13 90.21 2.40 42
13 02/01/2020 02:25:56 -72.67, -44.59 89.82 02/01/2020 02:26:37 -72.68, -44.58 89.82 1.50 41
14 02/01/2020 03:16:41 72.68, 122.70 90.19 02/01/2020 03:17:14 72.68, 122.76 90.17 2.06 33
15 02/01/2020 04:07:25 -72.67, -69.97 89.84 02/01/2020 04:07:57 -72.67, -69.94 89.85 0.96 32
16 02/01/2020 04:58:11 72.68, 97.32 90.17 02/01/2020 04:58:35 72.67, 97.40 90.14 3.14 24
17 02/01/2020 05:48:55 -72.68, -95.35 89.86 02/01/2020 05:49:18 -72.66, -95.30 89.88 2.57 23
18 02/01/2020 06:39:40 72.64, 72.04 90.10 02/01/2020 06:39:56 72.65, 72.04 90.11 2.11 16
19 02/01/2020 07:30:24 -72.63,-120.62 89.93 02/01/2020 07:30:39 -72.64,-120.67 89.91 2.24 15
20 02/01/2020 08:21:10 72.64, 46.66 90.08 02/01/2020 08:21:17 72.64, 46.67 90.08 0.38 7
21 02/01/2020 09:11:54 -72.63,-146.00 89.94 02/01/2020 09:12:00 -72.63,-146.03 89.95 0.87 6
22 02/01/2020 10:02:40 72.64, 21.28 90.06 02/01/2020 10:02:38 72.63, 21.31 90.05 1.74 2
23 02/01/2020 10:53:24 -72.63,-171.38 89.96 02/01/2020 10:53:21 -72.62,-171.39 89.98 1.86 3
24 02/01/2020 11:44:09 72.59, -3.99 89.99 02/01/2020 11:43:59 72.61, -4.06 90.02 3.10 10
25 02/01/2020 12:34:54 -72.64, 163.24 89.98 02/01/2020 12:34:42 -72.60, 163.24 90.01 3.63 12
26 02/01/2020 13:25:39 72.60, -29.37 89.97 02/01/2020 13:25:20 72.60, -29.42 89.99 1.60 19
27 02/01/2020 14:16:23 -72.59, 137.96 90.05 02/01/2020 14:16:03 -72.59, 137.88 90.04 2.63 20
28 02/01/2020 15:07:09 72.60, -54.75 89.96 02/01/2020 15:06:41 72.59, -54.78 89.95 1.64 28
29 02/01/2020 15:57:53 -72.59, 112.58 90.07 02/01/2020 15:57:24 -72.58, 112.52 90.07 2.59 29
30 02/01/2020 16:48:39 72.60, -80.13 89.94 02/01/2020 16:48:02 72.57, -80.15 89.92 3.17 37
31 02/01/2020 17:39:23 -72.59, 87.20 90.08 02/01/2020 17:38:44 -72.61, 87.26 90.06 3.00 39
32 02/01/2020 18:30:08 72.55,-105.41 89.87 02/01/2020 18:29:23 72.56,-105.51 89.89 3.36 45
33 02/01/2020 19:20:53 -72.60, 61.82 90.10 02/01/2020 19:20:05 -72.60, 61.89 90.09 2.56 48
34 02/01/2020 20:11:38 72.56,-130.79 89.85 02/01/2020 20:10:44 72.55,-130.87 89.86 2.94 54
35 02/01/2020 21:02:23 -72.60, 36.44 90.12 02/01/2020 21:01:26 -72.59, 36.53 90.12 3.33 57
36 02/01/2020 21:53:08 72.56,-156.17 89.83 02/01/2020 21:52:04 72.58,-156.13 89.87 3.03 64
37 02/01/2020 22:43:52 -72.55, 11.16 90.19 02/01/2020 22:42:47 -72.57, 11.17 90.15 2.57 65
38 02/01/2020 23:34:38 72.56, 178.45 89.82 02/01/2020 23:33:25 72.57, 178.50 89.84 2.08 73
39 02/02/2020 00:25:22 -72.55, -14.22 90.21 02/02/2020 00:24:08 -72.56, -14.19 90.18 1.10 74
40 02/02/2020 01:16:03 72.31, 153.58 89.52 02/02/2020 01:14:51 72.30, 152.63 89.59 32.03 72
41 02/02/2020 02:06:46 -72.25, -38.99 90.56 02/02/2020 02:05:34 -72.29, -40.06 90.44 36.65 72
42 02/02/2020 02:57:26 71.95, 128.89 89.11 02/02/2020 02:56:18 71.98, 126.68 89.29 76.28 68
43 02/02/2020 03:48:10 -71.95, -63.78 90.91 02/02/2020 03:47:02 -71.92, -66.11 90.78 80.45 68




NCC Satellite Simultaneous Nadir Overpasses (SNOs) Prediction Service
